Simultaneous Nadir Overpasses (SNOs) Predictions

Prediction of SNOs between NOAA-19 and NPP Satellite Orbit:

Table of predicted SNOs for the next 14.0 days since TLE Epoch: 11/21/2020
Index Date (NOAA-19) Time (NOAA-19) Lat,Lon (NOAA-19) SZA (NOAA-19 ) Date (NPP) Time (NPP) Lat,Lon (NPP) SZA (NPP ) Distance(km) Time Diff (sec)
1 11/21/2020 00:33:48 78.91, 141.71 99.91 11/21/2020 00:33:40 78.89, 141.84 99.89 3.06 8
2 11/21/2020 01:24:54 -78.91, -51.04 80.09 11/21/2020 01:24:25 -78.92, -51.03 80.07 1.36 29
3 11/21/2020 02:15:48 78.92, 116.33 99.93 11/21/2020 02:15:10 78.90, 116.43 99.91 3.21 38
4 11/21/2020 03:06:54 -78.92, -76.42 80.07 11/21/2020 03:05:55 -78.93, -76.44 80.05 0.58 59
5 11/21/2020 03:57:48 78.94, 90.96 99.95 11/21/2020 03:56:40 78.90, 91.02 99.94 3.89 68
6 12/04/2020 21:47:19 78.83,-176.67 102.34 12/04/2020 21:48:33 78.86,-176.69 102.34 3.23 74
7 12/04/2020 22:38:23 -78.85, -9.29 77.65 12/04/2020 22:39:17 -78.84, -9.24 77.69 1.68 54
